^^
Saratoga-Weather Station Historical Data
Daily Summary for July 23, 2020 Units:  English    Metric   Both
Daily Weekly Monthly Yearly Custom
  High: Low: Average:
Temperature: 72.3 °F 62.4 °F 67.1 °F
Dew Point: 56.7 °F 49.6 °F 53.6 °F
Humidity: 79% 46% 63%
Wind Speed: 14.1mph 0mph 3.9mph
Wind Gust: 21mph - -
Wind- - West
Pressure: 30.1 in 30 in -
Precipitation: 0 in    
Historical Graphs
 
 
Tabular Data for July 23, 2020
Time Temperature Dew Point Pressure Wind Wind Speed Wind Gust Humidity Rainfall Rate (Hourly) solar
00:04 67.6 °F 54.7 °F 30 in WNW 2 mph 3 mph 63% 0 in 0 W/m2
00:09 67.6 °F 54.7 °F 30 in Calm   1 mph 63% 0 in 0 W/m2
00:15 67.6 °F 54.7 °F 30 in Calm   3 mph 63% 0 in 0 W/m2
00:20 67.8 °F 54.7 °F 30 in Calm   1 mph 63% 0 in 0 W/m2
00:25 67.8 °F 54.7 °F 30 in SW 0.9 mph 1 mph 63% 0 in 0 W/m2
00:30 67.8 °F 54.7 °F 30 in West 2 mph 3 mph 63% 0 in 0 W/m2
00:35 67.8 °F 54.7 °F 30 in WNW 2.9 mph 4 mph 63% 0 in 0 W/m2
00:40 67.6 °F 54.7 °F 30 in WNW 2 mph 3 mph 63% 0 in 0 W/m2
00:45 67.6 °F 54.7 °F 30 in Calm   2 mph 63% 0 in 0 W/m2
00:50 67.5 °F 54.5 °F 30 in WSW 0.9 mph 4 mph 63% 0 in 0 W/m2
00:55 67.5 °F 54.9 °F 30 in West 2 mph 3 mph 64% 0 in 0 W/m2
01:00 67.5 °F 54.9 °F 30 in WSW 2 mph 3 mph 64% 0 in 0 W/m2
01:05 67.5 °F 54.9 °F 30 in West 0.9 mph 2 mph 64% 0 in 0 W/m2
01:10 67.5 °F 54.9 °F 30 in WSW 0.9 mph 3 mph 64% 0 in 0 W/m2
01:15 67.5 °F 54.5 °F 30 in WSW 0.9 mph 3 mph 63% 0 in 0 W/m2
01:20 67.6 °F 54.7 °F 30 in SSW 2 mph 3 mph 63% 0 in 0 W/m2
01:25 67.6 °F 55 °F 30 in WNW 2 mph 3 mph 64% 0 in 0 W/m2
01:30 67.5 °F 54.9 °F 30 in West 2.9 mph 3 mph 64% 0 in 0 W/m2
01:35 67.5 °F 54.9 °F 30 in Calm   4 mph 64% 0 in 0 W/m2
01:40 67.5 °F 54.9 °F 30 in West 4 mph 4 mph 64% 0 in 0 W/m2
01:45 67.5 °F 54.9 °F 30 in West 2 mph 3 mph 64% 0 in 0 W/m2
01:50 67.5 °F 54.9 °F 30 in West 0.9 mph 2 mph 64% 0 in 0 W/m2
01:55 67.5 °F 54.9 °F 30 in West 0.9 mph 5 mph 64% 0 in 0 W/m2
02:00 67.5 °F 55.2 °F 30 in West 0.9 mph 2 mph 65% 0 in 0 W/m2
02:05 67.3 °F 55 °F 30 in WSW 2 mph 2 mph 65% 0 in 0 W/m2
02:10 66.9 °F 54.9 °F 30 in Calm   3 mph 65% 0 in 0 W/m2
02:15 66.9 °F 54.9 °F 30 in NW 2 mph 4 mph 65% 0 in 0 W/m2
02:20 66.9 °F 54.9 °F 30 in WNW 0.9 mph 3 mph 65% 0 in 0 W/m2
02:25 66.9 °F 54.9 °F 30 in WSW 0.9 mph 4 mph 65% 0 in 0 W/m2
02:30 66.9 °F 54.9 °F 30 in WSW 0.9 mph 1 mph 65% 0 in 0 W/m2
02:35 66.9 °F 54.9 °F 30 in Calm   1 mph 65% 0 in 0 W/m2
02:40 66.9 °F 54.9 °F 30 in WNW 0.9 mph 3 mph 65% 0 in 0 W/m2
02:45 66.9 °F 54.9 °F 30 in West 0.9 mph 2 mph 65% 0 in 0 W/m2
02:50 66.9 °F 54.9 °F 30 in Calm   1 mph 65% 0 in 0 W/m2
02:55 66.9 °F 55.2 °F 30 in Calm   2 mph 66% 0 in 0 W/m2
03:00 66.9 °F 55.2 °F 30 in WNW 0.9 mph 2 mph 66% 0 in 0 W/m2
03:05 66.7 °F 55 °F 30 in Calm   1 mph 66% 0 in 0 W/m2
03:10 66.7 °F 55 °F 30 in NW 2 mph 3 mph 66% 0 in 0 W/m2
03:15 66.9 °F 55.2 °F 30 in WNW 2 mph 4 mph 66% 0 in 0 W/m2
03:20 66.9 °F 55.6 °F 30 in West 2 mph 3 mph 67% 0 in 0 W/m2
03:25 66.9 °F 55.6 °F 30 in NNW 0.9 mph 3 mph 67% 0 in 0 W/m2
03:30 66.9 °F 55.6 °F 30 in WSW 0.9 mph 2 mph 67% 0 in 0 W/m2
03:36 66.7 °F 55.4 °F 30 in North 2 mph 3 mph 67% 0 in 0 W/m2
03:41 66.7 °F 55.4 °F 30 in NNW 2.9 mph 3 mph 67% 0 in 0 W/m2
03:46 66.7 °F 55.4 °F 30 in Calm   1 mph 67% 0 in 0 W/m2
03:51 66.7 °F 55.4 °F 30 in WNW 0.9 mph 6 mph 67% 0 in 0 W/m2
03:56 66.6 °F 55.2 °F 30 in NNW 0.9 mph 3 mph 67% 0 in 0 W/m2
04:01 66.6 °F 55.6 °F 30 in WNW 4.9 mph 5 mph 68% 0 in 0 W/m2
04:06 66.6 °F 55.6 °F 30 in SW 2 mph 7 mph 68% 0 in 0 W/m2
04:11 66.6 °F 55.6 °F 30 in WSW 2 mph 5 mph 68% 0 in 0 W/m2
04:16 66.4 °F 55.6 °F 30 in WNW 2 mph 3 mph 68% 0 in 0 W/m2
04:21 66.4 °F 55.9 °F 30 in WNW 6.9 mph 9 mph 69% 0 in 0 W/m2
04:26 66.4 °F 55.9 °F 30 in West 2.9 mph 4 mph 69% 0 in 0 W/m2
04:31 66.4 °F 55.9 °F 30 in WNW 2.9 mph 9 mph 69% 0 in 0 W/m2
04:36 66.4 °F 55.9 °F 30 in NW 2.9 mph 4 mph 69% 0 in 0 W/m2
04:41 66.2 °F 55.8 °F 30 in West 2 mph 5 mph 69% 0 in 0 W/m2
04:46 66.2 °F 55.8 °F 30 in NW 4.9 mph 5 mph 69% 0 in 0 W/m2
04:51 66 °F 55.6 °F 30 in Calm   1 mph 69% 0 in 0 W/m2
04:56 66 °F 55.6 °F 30 in WSW 4 mph 6 mph 69% 0 in 0 W/m2
05:01 65.8 °F 55.8 °F 30 in SE 0.9 mph 4 mph 70% 0 in 0 W/m2
05:06 65.8 °F 55.8 °F 30 in West 2.9 mph 10 mph 70% 0 in 0 W/m2
05:12 65.8 °F 55.8 °F 30 in Calm   2 mph 70% 0 in 0 W/m2
05:17 65.7 °F 55.6 °F 30 in West 2 mph 9 mph 70% 0 in 0 W/m2
05:22 65.7 °F 55.9 °F 30 in WSW 2.9 mph 4 mph 71% 0 in 0 W/m2
05:27 65.5 °F 55.8 °F 30 in West 2.9 mph 8 mph 71% 0 in 0 W/m2
05:32 65.5 °F 55.8 °F 30 in NNW 2.9 mph 4 mph 71% 0 in 0 W/m2
05:37 65.5 °F 55.8 °F 30 in Calm   7 mph 71% 0 in 0 W/m2
05:42 65.5 °F 55.8 °F 30 in Calm   4 mph 71% 0 in 0 W/m2
05:47 65.1 °F 55.4 °F 30 in NW 0.9 mph 7 mph 71% 0 in 0 W/m2
05:52 65.1 °F 55.9 °F 30 in WNW 2 mph 3 mph 72% 0 in 0 W/m2
05:57 64.9 °F 55.8 °F 30 in West 2 mph 9 mph 72% 0 in 0 W/m2
06:02 64.8 °F 55.6 °F 30 in WNW 0.9 mph 5 mph 72% 0 in 0 W/m2
06:07 64.8 °F 55.6 °F 30 in NW 0.9 mph 9 mph 72% 0 in 0 W/m2
06:12 64.6 °F 55.4 °F 30 in NW 2 mph 5 mph 72% 0 in 0 W/m2
06:17 64.6 °F 55.4 °F 30 in West 4 mph 9 mph 72% 0 in 0 W/m2
06:22 64.2 °F 55.4 °F 30 in West 4 mph 7 mph 73% 0 in 0 W/m2
06:27 64 °F 55.2 °F 30 in West 2.9 mph 9 mph 73% 0 in 0 W/m2
06:32 64 °F 55.2 °F 30 in WNW 2.9 mph 7 mph 73% 0 in 0 W/m2
06:37 63.9 °F 55.4 °F 30 in West 4 mph 8 mph 74% 0 in 0 W/m2
06:42 63.7 °F 55.2 °F 30 in West 4 mph 9 mph 74% 0 in 0 W/m2
06:47 63.3 °F 55.2 °F 30 in WSW 8.1 mph 9 mph 75% 0 in 7 W/m2
06:52 63.1 °F 55 °F 30 in WNW 6.9 mph 12 mph 75% 0 in 12 W/m2
06:57 63 °F 54.9 °F 30 in WSW 8.1 mph 9 mph 75% 0 in 16 W/m2
07:02 62.8 °F 55 °F 30 in WNW 13 mph 13 mph 76% 0 in 23 W/m2
07:07 62.6 °F 54.9 °F 30 in West 6 mph 10 mph 76% 0 in 26 W/m2
07:12 62.4 °F 55 °F 30 in NW 2 mph 13 mph 77% 0 in 28 W/m2
07:17 62.4 °F 55 °F 30 in West 6.9 mph 8 mph 77% 0 in 30 W/m2
07:22 62.4 °F 55.4 °F 30 in SW 2 mph 8 mph 78% 0 in 32 W/m2
07:27 62.4 °F 55.4 °F 30 in West 4 mph 7 mph 78% 0 in 37 W/m2
07:32 62.4 °F 55.4 °F 30 in West 8.1 mph 10 mph 78% 0 in 28 W/m2
07:37 62.4 °F 55.4 °F 30 in WSW 4.9 mph 7 mph 78% 0 in 28 W/m2
07:42 62.4 °F 55.8 °F 30 in WNW 11 mph 11 mph 79% 0 in 40 W/m2
07:47 62.8 °F 55.8 °F 30 in NW 6.9 mph 11 mph 78% 0 in 70 W/m2
07:52 63 °F 55.9 °F 30 in West 8.9 mph 9 mph 78% 0 in 81 W/m2
07:57 63.1 °F 56.1 °F 30 in West 8.1 mph 12 mph 78% 0 in 72 W/m2
08:02 63.1 °F 55.8 °F 30 in WSW 2.9 mph 8 mph 77% 0 in 32 W/m2
08:07 63.1 °F 56.1 °F 30 in West 2 mph 9 mph 78% 0 in 32 W/m2
08:12 63 °F 55.9 °F 30 in West 4 mph 9 mph 78% 0 in 72 W/m2
08:17 63.1 °F 56.1 °F 30 in WSW 4 mph 11 mph 78% 0 in 105 W/m2
08:22 63.5 °F 56.5 °F 30 in WSW 14.1 mph 21 mph 78% 0 in 67 W/m2
08:27 63.5 °F 56.1 °F 30 in WSW 6.9 mph 12 mph 77% 0 in 74 W/m2
08:32 63.7 °F 56.3 °F 30 in NW 4.9 mph 21 mph 77% 0 in 127 W/m2
08:37 64 °F 56.7 °F 30 in WSW 4.9 mph 13 mph 77% 0 in 155 W/m2
08:42 64.4 °F 56.7 °F 30 in NW 4 mph 14 mph 76% 0 in 171 W/m2
08:47 64.2 °F 56.1 °F 30 in SW 4.9 mph 10 mph 75% 0 in 125 W/m2
08:52 63.9 °F 55.8 °F 30 in WSW 8.9 mph 15 mph 75% 0 in 105 W/m2
08:57 63.5 °F 55.8 °F 30 in West 4 mph 7 mph 76% 0 in 118 W/m2
09:02 63.5 °F 56.1 °F 30 in West 2.9 mph 15 mph 77% 0 in 121 W/m2
09:07 63.5 °F 56.1 °F 30 in NW 4 mph 6 mph 77% 0 in 114 W/m2
09:12 63.3 °F 55.6 °F 30 in WNW 6.9 mph 10 mph 76% 0 in 91 W/m2
09:17 63.3 °F 55.6 °F 30 in WNW 4 mph 8 mph 76% 0 in 438 W/m2
09:22 64 °F 56.3 °F 30.1 in WNW 8.1 mph 9 mph 76% 0 in 292 W/m2
09:32 64.8 °F 55.9 °F 30.1 in WNW 4 mph 10 mph 73% 0 in 111 W/m2
09:37 64.9 °F 55.4 °F 30.1 in West 6 mph 11 mph 71% 0 in 338 W/m2
09:42 64.8 °F 54.7 °F 30.1 in WNW 11 mph 11 mph 70% 0 in 323 W/m2
09:47 64.9 °F 55.4 °F 30.1 in WNW 2.9 mph 8 mph 71% 0 in 561 W/m2
09:52 65.7 °F 55.9 °F 30.1 in WSW 6.9 mph 7 mph 71% 0 in 605 W/m2
09:57 65.8 °F 56.1 °F 30.1 in West 6 mph 9 mph 71% 0 in 169 W/m2
10:02 65.7 °F 54.9 °F 30.1 in WNW 2.9 mph 12 mph 68% 0 in 158 W/m2
10:07 65.3 °F 54.5 °F 30.1 in West 6.9 mph 10 mph 68% 0 in 517 W/m2
10:12 65.5 °F 55 °F 30.1 in WNW 8.1 mph 12 mph 69% 0 in 332 W/m2
10:17 65.5 °F 55 °F 30.1 in WNW 2.9 mph 12 mph 69% 0 in 181 W/m2
10:22 65.1 °F 54.7 °F 30.1 in WSW 6.9 mph 10 mph 69% 0 in 237 W/m2
10:27 64.9 °F 54.9 °F 30.1 in West 4 mph 12 mph 70% 0 in 155 W/m2
10:33 64.9 °F 55.4 °F 30.1 in WNW 6.9 mph 8 mph 71% 0 in 120 W/m2
10:38 64.6 °F 55 °F 30.1 in NW 6 mph 12 mph 71% 0 in 98 W/m2
10:43 64.2 °F 55 °F 30.1 in WSW 4 mph 10 mph 72% 0 in 234 W/m2
10:48 64.6 °F 55.4 °F 30.1 in WNW 2.9 mph 11 mph 72% 0 in 330 W/m2
10:53 64.9 °F 55.4 °F 30.1 in NNW 8.1 mph 14 mph 71% 0 in 338 W/m2
10:58 65.1 °F 55.4 °F 30.1 in West 6.9 mph 8 mph 71% 0 in 348 W/m2
11:03 65.1 °F 55.4 °F 30.1 in WNW 4.9 mph 14 mph 71% 0 in 227 W/m2
11:08 64.9 °F 55.4 °F 30.1 in WSW 4.9 mph 8 mph 71% 0 in 288 W/m2
11:13 64.9 °F 55.4 °F 30.1 in WNW 4.9 mph 10 mph 71% 0 in 272 W/m2
11:18 65.3 °F 55.2 °F 30.1 in WSW 8.1 mph 11 mph 70% 0 in 559 W/m2
11:23 65.3 °F 54.9 °F 30.1 in West 8.1 mph 13 mph 69% 0 in 325 W/m2
11:28 65.5 °F 54.7 °F 30.1 in West 6 mph 8 mph 68% 0 in 128 W/m2
11:33 66 °F 54.3 °F 30.1 in WNW 4 mph 8 mph 66% 0 in 703 W/m2
11:38 66.7 °F 54.7 °F 30.1 in NNW 4 mph 8 mph 65% 0 in 758 W/m2
11:43 67.6 °F 54.1 °F 30.1 in West 8.1 mph 15 mph 62% 0 in 916 W/m2
11:48 67.6 °F 54.1 °F 30.1 in West 4 mph 12 mph 62% 0 in 490 W/m2
11:53 67.8 °F 54.3 °F 30.1 in WNW 4 mph 8 mph 62% 0 in 304 W/m2
11:58 67.3 °F 54.3 °F 30.1 in NW 4.9 mph 10 mph 63% 0 in 271 W/m2
12:03 67.1 °F 54.1 °F 30.1 in WSW 11 mph 11 mph 63% 0 in 831 W/m2
12:08 67.3 °F 54.3 °F 30.1 in WNW 4.9 mph 9 mph 63% 0 in 789 W/m2
12:13 67.3 °F 53.8 °F 30.1 in WNW 10.1 mph 12 mph 62% 0 in 814 W/m2
12:18 67.5 °F 54.5 °F 30.1 in WNW 2.9 mph 9 mph 63% 0 in 904 W/m2
12:23 67.6 °F 53.2 °F 30.1 in SW 4 mph 11 mph 60% 0 in 854 W/m2
12:28 68.2 °F 54.1 °F 30.1 in NNW 6 mph 9 mph 61% 0 in 830 W/m2
12:33 68.5 °F 53.2 °F 30.1 in WSW 4.9 mph 17 mph 58% 0 in 793 W/m2
12:38 68.5 °F 52.7 °F 30.1 in NW 12.1 mph 13 mph 57% 0 in 870 W/m2
12:43 68.7 °F 53.4 °F 30.1 in ENE 2.9 mph 16 mph 58% 0 in 338 W/m2
12:48 68.7 °F 53.4 °F 30.1 in WNW 2.9 mph 8 mph 58% 0 in 345 W/m2
12:53 68.5 °F 52.7 °F 30.1 in WNW 14.1 mph 16 mph 57% 0 in 355 W/m2
12:58 68.2 °F 52.3 °F 30.1 in WNW 8.9 mph 12 mph 57% 0 in 974 W/m2
13:03 68.2 °F 51.4 °F 30.1 in WNW 4.9 mph 10 mph 55% 0 in 179 W/m2
13:08 67.8 °F 50.5 °F 30.1 in WNW 2.9 mph 7 mph 54% 0 in 142 W/m2
13:13 68.4 °F 51.1 °F 30.1 in West 11 mph 13 mph 54% 0 in 863 W/m2
13:18 69.1 °F 51.3 °F 30.1 in NW 8.1 mph 8 mph 53% 0 in 930 W/m2
13:23 69.6 °F 51.3 °F 30.1 in West 4 mph 8 mph 52% 0 in 367 W/m2
13:28 69.6 °F 51.3 °F 30.1 in West 6 mph 8 mph 52% 0 in 241 W/m2
13:33 69.4 °F 50 °F 30.1 in NW 8.1 mph 10 mph 50% 0 in 267 W/m2
13:38 70 °F 51.6 °F 30.1 in NNW 6 mph 7 mph 52% 0 in 923 W/m2
13:43 70.7 °F 51.1 °F 30.1 in NNW 2.9 mph 8 mph 50% 0 in 1014 W/m2
13:48 70.3 °F 50.4 °F 30.1 in West 11 mph 12 mph 49% 0 in 265 W/m2
13:53 70 °F 50.5 °F 30.1 in West 4 mph 10 mph 50% 0 in 352 W/m2
13:58 70.5 °F 50.9 °F 30.1 in WNW 4.9 mph 8 mph 50% 0 in 1051 W/m2
14:03 71.1 °F 50.9 °F 30.1 in NW 8.9 mph 9 mph 49% 0 in 1072 W/m2
14:08 70.9 °F 50.7 °F 30.1 in NW 6.9 mph 10 mph 49% 0 in 295 W/m2
14:13 70.5 °F 51.4 °F 30.1 in NNW 8.9 mph 10 mph 51% 0 in 383 W/m2
14:18 70.2 °F 51.8 °F 30.1 in West 4 mph 9 mph 52% 0 in 338 W/m2
14:23 70.2 °F 51.8 °F 30.1 in NW 6 mph 10 mph 52% 0 in 415 W/m2
14:29 69.6 °F 50.7 °F 30.1 in WNW 6.9 mph 10 mph 51% 0 in 403 W/m2
14:34 69.6 °F 50.7 °F 30.1 in WNW 6.9 mph 12 mph 51% 0 in 441 W/m2
14:39 69.6 °F 50.2 °F 30.1 in West 2.9 mph 8 mph 50% 0 in 476 W/m2
14:44 70.2 °F 50.2 °F 30.1 in WSW 8.1 mph 16 mph 49% 0 in 1063 W/m2
14:49 70.5 °F 50.9 °F 30.1 in WNW 2.9 mph 9 mph 50% 0 in 589 W/m2
14:54 71.1 °F 51.4 °F 30.1 in NW 2.9 mph 16 mph 50% 0 in 954 W/m2
14:59 71.4 °F 51.3 °F 30.1 in West 6.9 mph 10 mph 49% 0 in 954 W/m2
15:04 71.2 °F 51.1 °F 30.1 in WSW 4 mph 13 mph 49% 0 in 381 W/m2
15:09 71.1 °F 51.4 °F 30.1 in West 4 mph 9 mph 50% 0 in 587 W/m2
15:14 70.9 °F 51.3 °F 30.1 in West 6 mph 12 mph 50% 0 in 478 W/m2
15:19 70.5 °F 51.4 °F 30.1 in West 6.9 mph 9 mph 51% 0 in 200 W/m2
15:24 70.2 °F 51.3 °F 30.1 in West 2.9 mph 10 mph 51% 0 in 232 W/m2
15:29 70.2 °F 51.3 °F 30.1 in SW 6 mph 8 mph 51% 0 in 234 W/m2
15:34 70.2 °F 51.8 °F 30.1 in NW 2.9 mph 5 mph 52% 0 in 279 W/m2
15:39 70.2 °F 51.3 °F 30.1 in NW 2 mph 7 mph 51% 0 in 302 W/m2
15:44 70.2 °F 50.7 °F 30.1 in NW 8.1 mph 11 mph 50% 0 in 320 W/m2
15:49 70.2 °F 51.3 °F 30.1 in West 8.1 mph 11 mph 51% 0 in 279 W/m2
15:54 70 °F 51.1 °F 30.1 in West 6.9 mph 7 mph 51% 0 in 227 W/m2
15:59 70 °F 51.1 °F 30.1 in WNW 2.9 mph 7 mph 51% 0 in 325 W/m2
16:04 70 °F 51.1 °F 30.1 in West 0.9 mph 7 mph 51% 0 in 315 W/m2
16:09 70.3 °F 51.8 °F 30.1 in WNW 2.9 mph 4 mph 52% 0 in 316 W/m2
16:14 71.2 °F 51.6 °F 30.1 in NNW 2 mph 8 mph 50% 0 in 786 W/m2
16:19 71.4 °F 50.7 °F 30.1 in WNW 4.9 mph 12 mph 48% 0 in 357 W/m2
16:24 71.1 °F 50.4 °F 30.1 in NNW 4 mph 7 mph 48% 0 in 366 W/m2
16:29 71.1 °F 50.4 °F 30.1 in West 6 mph 12 mph 48% 0 in 401 W/m2
16:35 70.9 °F 50.7 °F 30.1 in West 4 mph 4 mph 49% 0 in 178 W/m2
16:40 70.5 °F 50.4 °F 30.1 in NNW 8.9 mph 12 mph 49% 0 in 594 W/m2
16:45 70.5 °F 50.4 °F 30.1 in WNW 4 mph 4 mph 49% 0 in 274 W/m2
16:50 70.7 °F 50 °F 30.1 in North 2.9 mph 5 mph 48% 0 in 320 W/m2
16:55 70.9 °F 50.7 °F 30.1 in West 2.9 mph 8 mph 49% 0 in 253 W/m2
17:00 71.1 °F 50.4 °F 30.1 in WSW 4.9 mph 8 mph 48% 0 in 355 W/m2
17:05 71.1 °F 49.8 °F 30.1 in West 2.9 mph 5 mph 47% 0 in 185 W/m2
17:10 71.4 °F 50.7 °F 30.1 in WNW 2.9 mph 6 mph 48% 0 in 598 W/m2
17:15 72 °F 50 °F 30.1 in West 6 mph 9 mph 46% 0 in 250 W/m2
17:20 72.3 °F 50.4 °F 30.1 in West 8.1 mph 13 mph 46% 0 in 515 W/m2
17:25 72 °F 50.7 °F 30.1 in WNW 6.9 mph 7 mph 47% 0 in 207 W/m2
17:30 71.4 °F 49.6 °F 30.1 in West 0.9 mph 12 mph 46% 0 in 213 W/m2
17:35 71.2 °F 50 °F 30.1 in NW 2 mph 8 mph 47% 0 in 246 W/m2
17:40 71.2 °F 50.5 °F 30.1 in WNW 2 mph 7 mph 48% 0 in 227 W/m2
17:45 71.4 °F 50.7 °F 30.1 in NW 6 mph 7 mph 48% 0 in 211 W/m2
17:50 71.2 °F 50.5 °F 30 in West 0.9 mph 5 mph 48% 0 in 197 W/m2
17:55 71.2 °F 50 °F 30 in SSW 4 mph 7 mph 47% 0 in 174 W/m2
18:00 71.2 °F 50.5 °F 30 in WNW 4.9 mph 7 mph 48% 0 in 141 W/m2
18:05 71.1 °F 50.4 °F 30 in WNW 4 mph 8 mph 48% 0 in 114 W/m2
18:10 70.9 °F 50.2 °F 30 in West 2.9 mph 9 mph 48% 0 in 97 W/m2
18:15 70.7 °F 50 °F 30 in WNW 2.9 mph 6 mph 48% 0 in 95 W/m2
18:20 70.5 °F 50.4 °F 30 in West 8.1 mph 8 mph 49% 0 in 109 W/m2
18:25 70.5 °F 50.4 °F 30 in West 6 mph 8 mph 49% 0 in 116 W/m2
18:30 70.5 °F 50.4 °F 30 in WNW 4.9 mph 9 mph 49% 0 in 125 W/m2
18:35 70.5 °F 50.4 °F 30 in WNW 2 mph 7 mph 49% 0 in 144 W/m2
18:40 71.1 °F 50.9 °F 30 in West 2 mph 4 mph 49% 0 in 403 W/m2
18:45 72 °F 51.3 °F 30 in NW 2 mph 7 mph 48% 0 in 323 W/m2
18:50 72 °F 50.7 °F 30 in West 6 mph 9 mph 47% 0 in 292 W/m2
18:55 71.4 °F 50.7 °F 30 in WSW 8.1 mph 11 mph 48% 0 in 151 W/m2
19:00 71.2 °F 50.5 °F 30 in West 4 mph 9 mph 48% 0 in 114 W/m2
19:05 71.1 °F 50.9 °F 30 in West 6 mph 13 mph 49% 0 in 65 W/m2
19:10 70.7 °F 50.5 °F 30 in West 2.9 mph 10 mph 49% 0 in 195 W/m2
19:15 70.5 °F 50.4 °F 30 in NW 4 mph 7 mph 49% 0 in 169 W/m2
19:20 70.3 °F 50.9 °F 30 in West 11 mph 14 mph 50% 0 in 149 W/m2
19:25 70.2 °F 50.7 °F 30 in West 2.9 mph 7 mph 50% 0 in 134 W/m2
19:30 70 °F 51.1 °F 30 in SW 4 mph 4 mph 51% 0 in 116 W/m2
19:35 70 °F 51.1 °F 30 in NNW 2.9 mph 7 mph 51% 0 in 90 W/m2
19:40 69.6 °F 51.3 °F 30 in WNW 4 mph 5 mph 52% 0 in 25 W/m2
19:45 69.4 °F 51.1 °F 30 in WNW 8.9 mph 9 mph 52% 0 in 21 W/m2
19:50 69.1 °F 51.3 °F 30 in WNW 2.9 mph 5 mph 53% 0 in 19 W/m2
19:55 68.7 °F 50.9 °F 30 in NNW 4.9 mph 7 mph 53% 0 in 18 W/m2
20:00 68.5 °F 50.7 °F 30 in SW 0.9 mph 3 mph 53% 0 in 14 W/m2
20:05 68.4 °F 51.1 °F 30 in WNW 2 mph 2 mph 54% 0 in 12 W/m2
20:10 68.2 °F 51.4 °F 30 in West 2.9 mph 9 mph 55% 0 in 12 W/m2
20:15 67.8 °F 51.1 °F 30 in WNW 0.9 mph 2 mph 55% 0 in 11 W/m2
20:20 67.6 °F 51.4 °F 30 in SSW 4 mph 7 mph 56% 0 in 9 W/m2
20:25 67.5 °F 51.3 °F 30 in WNW 2.9 mph   56% 0 in 9 W/m2
20:30 67.3 °F 51.4 °F 30.1 in WSW 0.9 mph 2 mph 57% 0 in 5 W/m2
20:35 66.9 °F 51.3 °F 30.1 in WSW 2.9 mph 3 mph 57% 0 in 0 W/m2
20:40 66.9 °F 51.3 °F 30.1 in West 2 mph 3 mph 57% 0 in 0 W/m2
20:45 66.7 °F 51.4 °F 30.1 in West 2 mph 2 mph 58% 0 in 0 W/m2
20:50 66.7 °F 51.4 °F 30.1 in West 0.9 mph 4 mph 58% 0 in 0 W/m2
20:55 66.6 °F 51.3 °F 30.1 in WSW 2.9 mph 5 mph 58% 0 in 0 W/m2
21:00 66.6 °F 51.3 °F 30.1 in Calm   3 mph 58% 0 in 0 W/m2
21:05 66.4 °F 51.1 °F 30.1 in West 2 mph 2 mph 58% 0 in 0 W/m2
21:10 66.4 °F 51.6 °F 30.1 in West 2 mph 3 mph 59% 0 in 0 W/m2
21:15 66 °F 51.3 °F 30.1 in WNW 4 mph 7 mph 59% 0 in 0 W/m2
21:20 66 °F 51.3 °F 30.1 in West 2 mph 6 mph 59% 0 in 0 W/m2
21:25 66 °F 51.8 °F 30.1 in WNW 0.9 mph 7 mph 60% 0 in 0 W/m2
21:30 66 °F 52.2 °F 30.1 in West 2 mph 3 mph 61% 0 in 0 W/m2
21:35 66 °F 52.2 °F 30.1 in West 2 mph 3 mph 61% 0 in 0 W/m2
21:40 65.8 °F 52.5 °F 30.1 in WSW 2 mph 4 mph 62% 0 in 0 W/m2
21:45 65.8 °F 52.9 °F 30.1 in West 4 mph 4 mph 63% 0 in 0 W/m2
21:50 65.8 °F 53.2 °F 30.1 in WSW 2.9 mph 4 mph 64% 0 in 0 W/m2
21:55 65.8 °F 53.2 °F 30.1 in West 2.9 mph 8 mph 64% 0 in 0 W/m2
22:00 66 °F 53.4 °F 30.1 in NW 2.9 mph 4 mph 64% 0 in 0 W/m2
22:05 66 °F 54 °F 30.1 in NW 6 mph 6 mph 65% 0 in 0 W/m2
22:10 65.8 °F 53.8 °F 30.1 in WSW 6.9 mph 7 mph 65% 0 in 0 W/m2
22:15 65.8 °F 54.1 °F 30.1 in WNW 2.9 mph 9 mph 66% 0 in 0 W/m2
22:20 65.8 °F 54.1 °F 30.1 in West 4 mph 5 mph 66% 0 in 0 W/m2
22:25 65.7 °F 54 °F 30.1 in West 2.9 mph 9 mph 66% 0 in 0 W/m2
22:30 65.5 °F 54.3 °F 30.1 in West 2.9 mph 6 mph 67% 0 in 0 W/m2
22:36 65.5 °F 54.3 °F 30.1 in WNW 2.9 mph 7 mph 67% 0 in 0 W/m2
22:41 65.1 °F 54.3 °F 30.1 in WNW 2.9 mph 6 mph 68% 0 in 0 W/m2
22:46 65.1 °F 54.3 °F 30.1 in NW 2.9 mph 7 mph 68% 0 in 0 W/m2
22:51 64.9 °F 54.1 °F 30.1 in West 2 mph 3 mph 68% 0 in 0 W/m2
22:56 64.8 °F 54.3 °F 30.1 in NW 4 mph 8 mph 69% 0 in 0 W/m2
23:01 64.8 °F 54.3 °F 30.1 in West 2.9 mph 6 mph 69% 0 in 0 W/m2
23:06 64.6 °F 54.5 °F 30.1 in West 2.9 mph 6 mph 70% 0 in 0 W/m2
23:11 64.6 °F 54.5 °F 30.1 in WSW 2.9 mph 7 mph 70% 0 in 0 W/m2
23:16 64.4 °F 54.3 °F 30.1 in NW 4 mph 7 mph 70% 0 in 0 W/m2
23:21 64.2 °F 54.7 °F 30.1 in West 4 mph 6 mph 71% 0 in 0 W/m2
23:26 64 °F 54.5 °F 30.1 in West 2.9 mph 4 mph 71% 0 in 0 W/m2
23:31 64 °F 54.9 °F 30.1 in West 2 mph 3 mph 72% 0 in 0 W/m2
23:36 63.9 °F 54.7 °F 30.1 in West 2 mph 2 mph 72% 0 in 0 W/m2
23:41 63.9 °F 55 °F 30.1 in WNW 2 mph 2 mph 73% 0 in 0 W/m2
23:46 63.7 °F 54.9 °F 30.1 in WNW 0.9 mph 2 mph 73% 0 in 0 W/m2
23:51 63.7 °F 55.2 °F 30.1 in Calm   1 mph 74% 0 in 0 W/m2
23:57 63.5 °F 55 °F 30.1 in Calm   1 mph 74% 0 in 0 W/m2
Juneau County Weather
Compliments of Weather Underground - 4 mb